Meteo pe oră la Dziewanowo

Astăzi, 8 Martie, Luni

Timp Temperatura Precipitaţii Vânt Presiune Umiditate
00:00 -4°C° 0 mm 2 m/s 748 mmHg 88%
01:00 -6°C° 0 mm 3 m/s 748 mmHg 95%
02:00 -6°C° 0 mm 3 m/s 748 mmHg 92%
03:00 -6°C° 0 mm 3 m/s 748 mmHg 90%
04:00 -7°C° 0 mm 3 m/s 748 mmHg 87%
05:00 -6°C° 0 mm 3 m/s 749 mmHg 86%
06:00 -6°C° 0 mm 3 m/s 749 mmHg 84%
07:00 -6°C° 0 mm 3 m/s 750 mmHg 82%
08:00 -4°C° 0 mm 4 m/s 750 mmHg 77%
09:00 -3°C° 0 mm 4 m/s 751 mmHg 73%
10:00 -1°C° 0 mm 5 m/s 751 mmHg 68%
11:00 -1°C° 0.1 mm 5 m/s 751 mmHg 65%
12:00 0°C° 0.1 mm 5 m/s 751 mmHg 62%
13:00 0°C° 0.1 mm 5 m/s 752 mmHg 59%
14:00 0°C° 0.1 mm 5 m/s 752 mmHg 60%
15:00 0°C° 0.1 mm 5 m/s 752 mmHg 61%
16:00 -1°C° 0.1 mm 4 m/s 752 mmHg 63%
17:00 -2°C° 0 mm 4 m/s 752 mmHg 68%
18:00 -2°C° 0 mm 3 m/s 752 mmHg 74%
19:00 -4°C° 0 mm 3 m/s 753 mmHg 80%
20:00 -4°C° 0 mm 2 m/s 753 mmHg 82%
21:00 -4°C° 0 mm 2 m/s 753 mmHg 83%
22:00 -4°C° 0 mm 2 m/s 754 mmHg 85%
23:00 -4°C° 0 mm 2 m/s 754 mmHg 85%

Mâine, 9 Martie, Marţi

Timp Temperatura Precipitaţii Vânt Presiune Umiditate
00:00 -5°C° 0 mm 2 m/s 754 mmHg 85%
01:00 -3°C° 0 mm 1 m/s 754 mmHg 85%
02:00 -3°C° 0 mm 1 m/s 754 mmHg 84%
03:00 -3°C° 0 mm 1 m/s 754 mmHg 84%
04:00 -2°C° 0 mm 1 m/s 754 mmHg 83%
05:00 -2°C° 0 mm 1 m/s 754 mmHg 81%
06:00 -2°C° 0 mm 1 m/s 754 mmHg 79%
07:00 -3°C° 0 mm 0 m/s 754 mmHg 77%
08:00 -1°C° 0 mm 1 m/s 754 mmHg 71%
09:00 0°C° 0 mm 1 m/s 754 mmHg 66%
10:00 0°C° 0 mm 1 m/s 755 mmHg 60%
11:00 +1°C° 0 mm 1 m/s 754 mmHg 57%
12:00 +1°C° 0 mm 1 m/s 754 mmHg 55%
13:00 +2°C° 0 mm 1 m/s 754 mmHg 52%
14:00 +2°C° 0 mm 1 m/s 754 mmHg 53%
15:00 +2°C° 0 mm 1 m/s 753 mmHg 53%
16:00 +1°C° 0 mm 1 m/s 753 mmHg 54%
17:00 -1°C° 0 mm 2 m/s 753 mmHg 59%
18:00 -2°C° 0 mm 2 m/s 753 mmHg 64%
19:00 -3°C° 0 mm 2 m/s 753 mmHg 68%
20:00 -3°C° 0 mm 2 m/s 754 mmHg 68%
21:00 -4°C° 0 mm 2 m/s 754 mmHg 68%
22:00 -4°C° 0 mm 2 m/s 754 mmHg 68%
23:00 -4°C° 0 mm 2 m/s 754 mmHg 67%

Poimâine, 10 Martie, Miercuri

Timp Temperatura Precipitaţii Vânt Presiune Umiditate
00:00 -4°C° 0 mm 2 m/s 754 mmHg 67%
01:00 -4°C° 0 mm 2 m/s 753 mmHg 66%
02:00 -4°C° 0 mm 2 m/s 753 mmHg 67%
03:00 -2°C° 0 mm 1 m/s 753 mmHg 67%
04:00 -2°C° 0 mm 1 m/s 753 mmHg 68%
05:00 -2°C° 0 mm 1 m/s 753 mmHg 68%
06:00 -2°C° 0 mm 1 m/s 754 mmHg 68%
07:00 -2°C° 0 mm 1 m/s 754 mmHg 68%
08:00 -3°C° 0 mm 2 m/s 754 mmHg 62%
09:00 -2°C° 0 mm 2 m/s 754 mmHg 56%
10:00 +1°C° 0 mm 2 m/s 754 mmHg 49%
11:00 +1°C° 0 mm 2 m/s 754 mmHg 47%
12:00 +3°C° 0 mm 1 m/s 754 mmHg 44%
13:00 +3°C° 0 mm 1 m/s 754 mmHg 42%
14:00 +3°C° 0 mm 1 m/s 754 mmHg 42%
15:00 +2°C° 0 mm 0 m/s 754 mmHg 43%
16:00 +2°C° 0 mm 0 m/s 754 mmHg 44%
17:00 +2°C° 0 mm 1 m/s 754 mmHg 49%
18:00 0°C° 0 mm 1 m/s 754 mmHg 54%
19:00 -3°C° 0 mm 2 m/s 754 mmHg 59%
20:00 -3°C° 0 mm 2 m/s 754 mmHg 60%
21:00 -3°C° 0 mm 2 m/s 755 mmHg 61%
22:00 -3°C° 0 mm 2 m/s 755 mmHg 62%
23:00 -3°C° 0 mm 2 m/s 755 mmHg 63%

11 Martie, Joi

Timp Temperatura Precipitaţii Vânt Presiune Umiditate
00:00 -4°C° 0 mm 2 m/s 755 mmHg 63%
01:00 -4°C° 0 mm 2 m/s 754 mmHg 64%
02:00 -4°C° 0 mm 2 m/s 754 mmHg 65%
03:00 -5°C° 0 mm 3 m/s 753 mmHg 65%
04:00 -5°C° 0 mm 3 m/s 753 mmHg 66%
05:00 -5°C° 0 mm 3 m/s 753 mmHg 64%
06:00 -4°C° 0 mm 4 m/s 753 mmHg 63%
07:00 -4°C° 0 mm 4 m/s 752 mmHg 61%
08:00 -4°C° 0 mm 5 m/s 752 mmHg 56%
09:00 -3°C° 0 mm 6 m/s 751 mmHg 51%
10:00 -1°C° 0 mm 7 m/s 751 mmHg 45%
11:00 -1°C° 0 mm 7 m/s 750 mmHg 45%
12:00 0°C° 0 mm 7 m/s 749 mmHg 44%
13:00 0°C° 0 mm 7 m/s 748 mmHg 43%
14:00 0°C° 0 mm 7 m/s 747 mmHg 46%
15:00 0°C° 0 mm 7 m/s 746 mmHg 49%
16:00 0°C° 0 mm 7 m/s 745 mmHg 52%
17:00 -1°C° 0.6 mm 7 m/s 745 mmHg 67%
18:00 -2°C° 0.6 mm 7 m/s 744 mmHg 82%
19:00 -2°C° 0.6 mm 7 m/s 744 mmHg 97%
20:00 -2°C° 0.6 mm 7 m/s 743 mmHg 96%
21:00 -1°C° 0.6 mm 7 m/s 742 mmHg 96%
22:00 -1°C° 0.6 mm 6 m/s 742 mmHg 95%
23:00 +1°C° 0.5 mm 6 m/s 741 mmHg 94%

12 Martie, Vineri

Timp Temperatura Precipitaţii Vânt Presiune Umiditate
00:00 +1°C° 0.5 mm 6 m/s 741 mmHg 93%
01:00 +1°C° 0.5 mm 5 m/s 740 mmHg 92%
02:00 +1°C° 0 mm 5 m/s 740 mmHg 93%
03:00 +1°C° 0 mm 5 m/s 740 mmHg 93%
04:00 +1°C° 0 mm 5 m/s 740 mmHg 94%
05:00 +1°C° 0 mm 5 m/s 740 mmHg 94%
06:00 +2°C° 0 mm 5 m/s 741 mmHg 93%
07:00 +2°C° 0 mm 5 m/s 741 mmHg 93%
08:00 +2°C° 0 mm 5 m/s 742 mmHg 90%
09:00 +3°C° 0 mm 6 m/s 742 mmHg 86%
10:00 +3°C° 0 mm 6 m/s 742 mmHg 83%
11:00 +3°C° 0 mm 6 m/s 743 mmHg 81%
12:00 +3°C° 0 mm 6 m/s 743 mmHg 79%
13:00 +3°C° 0 mm 6 m/s 744 mmHg 78%
14:00 +5°C° 0.1 mm 5 m/s 744 mmHg 75%
15:00 +5°C° 0.1 mm 5 m/s 744 mmHg 73%
16:00 +5°C° 0.1 mm 4 m/s 744 mmHg 71%
17:00 +4°C° 0 mm 4 m/s 744 mmHg 74%
18:00 +3°C° 0 mm 4 m/s 745 mmHg 77%
19:00 +2°C° 0 mm 3 m/s 745 mmHg 80%
20:00 +2°C° 0 mm 3 m/s 745 mmHg 81%
21:00 0°C° 0 mm 4 m/s 745 mmHg 82%
22:00 0°C° 0 mm 4 m/s 745 mmHg 84%
23:00 0°C° 0 mm 4 m/s 745 mmHg 84%

13 Martie, Sâmbătă

Timp Temperatura Precipitaţii Vânt Presiune Umiditate
00:00 0°C° 0 mm 4 m/s 744 mmHg 84%
01:00 0°C° 0 mm 4 m/s 744 mmHg 85%
02:00 0°C° 0 mm 4 m/s 744 mmHg 85%
03:00 0°C° 0 mm 5 m/s 744 mmHg 86%
04:00 0°C° 0 mm 5 m/s 743 mmHg 87%
05:00 0°C° 0 mm 5 m/s 743 mmHg 87%
06:00 0°C° 0 mm 5 m/s 743 mmHg 87%
07:00 0°C° 0 mm 5 m/s 743 mmHg 87%
08:00 +1°C° 0 mm 5 m/s 743 mmHg 84%
09:00 +2°C° 0 mm 5 m/s 744 mmHg 82%
10:00 +3°C° 0 mm 5 m/s 744 mmHg 80%
11:00 +3°C° 0.3 mm 5 m/s 744 mmHg 83%
12:00 +3°C° 0.3 mm 5 m/s 744 mmHg 87%
13:00 +2°C° 0.3 mm 5 m/s 743 mmHg 91%
14:00 +4°C° 0.1 mm 4 m/s 743 mmHg 86%
15:00 +5°C° 0.1 mm 4 m/s 743 mmHg 81%
16:00 +6°C° 0.1 mm 4 m/s 743 mmHg 76%
17:00 +4°C° 0 mm 4 m/s 743 mmHg 80%
18:00 +3°C° 0 mm 4 m/s 743 mmHg 84%
19:00 +1°C° 0 mm 4 m/s 743 mmHg 88%
20:00 +1°C° 0 mm 4 m/s 743 mmHg 88%
21:00 +1°C° 0 mm 4 m/s 743 mmHg 88%
22:00 +1°C° 0 mm 4 m/s 743 mmHg 88%
23:00 +1°C° 0 mm 4 m/s 742 mmHg 88%
Arată mai mult

Formular de consimțământ

Meteoprog și furnizorii noștri de servicii pot stoca și accesa date personale, precum cookies, identificatori de dispozitiv sau alte tehnologii similare pe dispozitivul dumneavoastră și procesa astfel de date pentru a personaliza conținutul și reclamele, dar și pentru a oferi caracteristici de social media și pentru a analiza traficul.

  • Stocarea și/sau accesarea informațiilor pe dispozitivul dumneavoastră

    Cookies, identificatori de dispozitiv sau alte informații pot fi stocate sau accesate pe dispozitiv în scopurile indicate mai sus.

  • Reclame și conținut personalizat, evaluarea reclamelor și a conținutului, informații despre audiențe și dezvoltarea produselor

    Reclamele și conținutul pot fi personalizate pe baza unui profil. Pot fi adăugate date suplimentare pentru a personaliza mai bine reclamele și conținutul. Performanța reclamelor și conținutului poate fi măsurată. Pot fi obținute informații despre utilizatorii care au văzut reclamele și conținutul. Aceste date pot fi utilizate pentru a dezvolta sau îmbunătăți experiența utilizatorilor, sistemele și software-ul.

Dând clic pe ‘Sunt de acord’, permiteți utilizarea cookie-urilor menționate, a identificatorilor de dispozitiv, balizelor web sau altor tehnologii similare. Setările pot fi modificate din browser-ul dispozitivului dumneavoastră.

În anumite scopuri, interesele legitime pot prima asupra consimțământului. Puteți citi mai multe informații în acest sens în Politica privind Confidențialitatea Datelor și Cookie.